Погода в Касумкенте

Россия / Республика Дагестан     41°40′38″N   48°09′08″E
темп.,
°C
ветер,
м/с
пор.,
м/с
влажн.,
%
обл.,
%
осадки,
мм/ч
давл.,
гПа
погр.,
м
10 апреля, сб
сб1000:00+11юв228388 0.0 101521
03:00+9юв22875 0.0 101621
06:00+8вюв1288100 0.0 1017100
09:00+11в3371100 0.0 1018564
12:00+14в4461100 0.0 1017880
15:00+12всв3266100 0.0 1017560
18:00+9св2176100 0.0 1018160
21:00+8ссз0181100 0.0 101943
11 апреля, вс
вс1100:00+8з228232 0.0 102017
03:00+9сз227983 0.0 101911
06:00+8ссв00835 0.0 101910
09:00+13всв2162100 0.0 1018396
12:00+18в335088 0.0 1016759
15:00+18в3451100 0.0 1014627
18:00+15в2265100 0.1 101442
21:00+13ссв017356 0.1 101411
12 апреля, пн
пн1200:00+11св1181100 0.0 101410
03:00+12всв2277100 0.0 101513
06:00+11св1178100 0.0 101513
09:00+15св216024 0.0 1016475
12:00+18св53510 0.0 1016907
15:00+18ссв65513 0.0 10161035
18:00+14ссв35650 0.0 1018231
21:00+11юз11783 0.1 102016
13 апреля, вт
вт1300:00+11ююз00807 0.0 102012
03:00+11юв118225 0.0 102010
06:00+11юз11815 0.0 102011
09:00+16в3460100 0.0 1019800
12:00+19вюв4644100 0.1 10181350
15:00+18вюв56411 0.1 10171261
18:00+15всв2255100 0.0 101823
21:00+12зсз1167100 0.0 101910
14 апреля, ср
ср1400:00+12з2259100 0.0 101820
03:00+9вюв017286 0.0 101710
06:00+10сз00740 0.0 101810
09:00+14св32615 0.0 1017642
12:00+17св43505 0.0 10161093
15:00+17св5450100 0.0 1015881
18:00+13з136390 0.1 1016200
21:00+14ссз4860100 0.2 1017480